Hourly Weather Brudnow

Today, 15 July, Wednesday

Time Temperature Precipitation Wind Pressure Humidity
00:00 +16°C° 0 mm 2 mps 748 mmHg 73%
01:00 +16°C° 0 mm 3 mps 748 mmHg 70%
02:00 +14°C° 0 mm 3 mps 748 mmHg 71%
03:00 +14°C° 0 mm 3 mps 748 mmHg 73%
04:00 +14°C° 0 mm 3 mps 747 mmHg 75%
05:00 +16°C° 0 mm 3 mps 748 mmHg 74%
06:00 +17°C° 0 mm 3 mps 748 mmHg 72%
07:00 +19°C° 0 mm 3 mps 748 mmHg 70%
08:00 +20°C° 0 mm 3 mps 747 mmHg 65%
09:00 +22°C° 0 mm 4 mps 747 mmHg 59%
10:00 +23°C° 0 mm 4 mps 747 mmHg 54%
11:00 +25°C° 0 mm 4 mps 747 mmHg 52%
12:00 +26°C° 0 mm 4 mps 747 mmHg 50%
13:00 +26°C° 0 mm 4 mps 746 mmHg 49%
14:00 +26°C° 0 mm 4 mps 746 mmHg 50%
15:00 +26°C° 0 mm 4 mps 746 mmHg 50%
16:00 +26°C° 0 mm 3 mps 746 mmHg 51%
17:00 +25°C° 0 mm 3 mps 746 mmHg 57%
18:00 +23°C° 0 mm 2 mps 746 mmHg 62%
19:00 +21°C° 0 mm 2 mps 745 mmHg 68%
20:00 +20°C° 0 mm 2 mps 746 mmHg 70%
21:00 +19°C° 0 mm 3 mps 746 mmHg 72%
22:00 +18°C° 0 mm 3 mps 746 mmHg 74%
23:00 +18°C° 0.1 mm 3 mps 746 mmHg 78%

Tomorrow, 16 July, Thursday

Time Temperature Precipitation Wind Pressure Humidity
00:00 +17°C° 0.1 mm 3 mps 746 mmHg 82%
01:00 +16°C° 0.1 mm 3 mps 746 mmHg 86%
02:00 +16°C° 0.1 mm 3 mps 745 mmHg 89%
03:00 +16°C° 0.1 mm 2 mps 745 mmHg 91%
04:00 +16°C° 0.1 mm 2 mps 745 mmHg 94%
05:00 +16°C° 0.3 mm 3 mps 745 mmHg 93%
06:00 +15°C° 0.3 mm 4 mps 746 mmHg 92%
07:00 +15°C° 0.3 mm 5 mps 746 mmHg 91%
08:00 +15°C° 0.9 mm 5 mps 746 mmHg 91%
09:00 +15°C° 0.9 mm 5 mps 746 mmHg 91%
10:00 +14°C° 0.9 mm 5 mps 746 mmHg 90%
11:00 +16°C° 0.5 mm 5 mps 746 mmHg 84%
12:00 +18°C° 0.5 mm 4 mps 747 mmHg 79%
13:00 +20°C° 0.5 mm 4 mps 747 mmHg 73%
14:00 +20°C° 0.5 mm 4 mps 747 mmHg 71%
15:00 +20°C° 0.5 mm 4 mps 746 mmHg 70%
16:00 +20°C° 0.5 mm 3 mps 746 mmHg 68%
17:00 +20°C° 0.8 mm 3 mps 746 mmHg 72%
18:00 +19°C° 0.8 mm 2 mps 746 mmHg 77%
19:00 +19°C° 0.8 mm 1 mps 746 mmHg 81%
20:00 +18°C° 0 mm 1 mps 747 mmHg 84%
21:00 +16°C° 0 mm 2 mps 747 mmHg 86%
22:00 +15°C° 0 mm 2 mps 747 mmHg 89%
23:00 +14°C° 0 mm 2 mps 747 mmHg 90%

Day after tomorrow, 17 July, Friday

Time Temperature Precipitation Wind Pressure Humidity
00:00 +14°C° 0 mm 2 mps 747 mmHg 92%
01:00 +14°C° 0 mm 2 mps 747 mmHg 93%
02:00 +13°C° 0 mm 2 mps 748 mmHg 94%
03:00 +13°C° 0 mm 2 mps 748 mmHg 94%
04:00 +13°C° 0 mm 2 mps 748 mmHg 95%
05:00 +14°C° 0 mm 2 mps 748 mmHg 91%
06:00 +15°C° 0 mm 2 mps 748 mmHg 87%
07:00 +17°C° 0 mm 2 mps 749 mmHg 83%
08:00 +18°C° 0 mm 2 mps 749 mmHg 77%
09:00 +19°C° 0 mm 2 mps 749 mmHg 71%
10:00 +20°C° 0 mm 2 mps 749 mmHg 65%
11:00 +20°C° 0 mm 2 mps 749 mmHg 62%
12:00 +21°C° 0 mm 2 mps 749 mmHg 59%
13:00 +23°C° 0 mm 2 mps 749 mmHg 56%
14:00 +23°C° 0 mm 2 mps 748 mmHg 56%
15:00 +23°C° 0 mm 2 mps 748 mmHg 56%
16:00 +23°C° 0 mm 2 mps 748 mmHg 56%
17:00 +21°C° 0 mm 2 mps 748 mmHg 62%
18:00 +20°C° 0 mm 2 mps 748 mmHg 67%
19:00 +19°C° 0 mm 2 mps 748 mmHg 72%
20:00 +18°C° 0 mm 2 mps 749 mmHg 74%
21:00 +18°C° 0 mm 2 mps 749 mmHg 76%
22:00 +17°C° 0 mm 2 mps 749 mmHg 77%
23:00 +16°C° 0 mm 2 mps 749 mmHg 80%

18 July, Saturday

Time Temperature Precipitation Wind Pressure Humidity
00:00 +16°C° 0 mm 2 mps 749 mmHg 83%
01:00 +14°C° 0 mm 3 mps 749 mmHg 85%
02:00 +15°C° 0 mm 2 mps 749 mmHg 87%
03:00 +15°C° 0 mm 2 mps 749 mmHg 90%
04:00 +15°C° 0 mm 2 mps 749 mmHg 92%
05:00 +16°C° 0 mm 3 mps 749 mmHg 90%
06:00 +17°C° 0 mm 3 mps 749 mmHg 88%
07:00 +17°C° 0 mm 3 mps 749 mmHg 86%
08:00 +19°C° 0 mm 3 mps 749 mmHg 81%
09:00 +20°C° 0 mm 3 mps 749 mmHg 76%
10:00 +22°C° 0 mm 3 mps 749 mmHg 71%
11:00 +24°C° 0.1 mm 3 mps 749 mmHg 67%
12:00 +25°C° 0.1 mm 2 mps 749 mmHg 63%
13:00 +26°C° 0.1 mm 2 mps 749 mmHg 59%
14:00 +26°C° 0.6 mm 2 mps 749 mmHg 61%
15:00 +25°C° 0.6 mm 3 mps 748 mmHg 63%
16:00 +25°C° 0.6 mm 3 mps 748 mmHg 66%
17:00 +24°C° 0.3 mm 2 mps 748 mmHg 70%
18:00 +23°C° 0.3 mm 2 mps 748 mmHg 73%
19:00 +21°C° 0.3 mm 2 mps 748 mmHg 77%
20:00 +21°C° 0 mm 1 mps 748 mmHg 78%
21:00 +20°C° 0 mm 1 mps 749 mmHg 79%
22:00 +20°C° 0 mm 1 mps 749 mmHg 81%
23:00 +20°C° 0 mm 1 mps 749 mmHg 81%

19 July, Sunday

Time Temperature Precipitation Wind Pressure Humidity
00:00 +20°C° 0 mm 1 mps 749 mmHg 81%
01:00 +20°C° 0 mm 1 mps 748 mmHg 81%
02:00 +19°C° 0 mm 1 mps 748 mmHg 83%
03:00 +19°C° 0 mm 1 mps 748 mmHg 84%
04:00 +19°C° 0 mm 1 mps 748 mmHg 86%
05:00 +20°C° 0 mm 1 mps 748 mmHg 84%
06:00 +21°C° 0 mm 1 mps 749 mmHg 83%
07:00 +21°C° 0 mm 1 mps 749 mmHg 82%
08:00 +23°C° 0.5 mm 1 mps 749 mmHg 76%
09:00 +24°C° 0.5 mm 1 mps 748 mmHg 70%
10:00 +26°C° 0.5 mm 1 mps 748 mmHg 64%
11:00 +26°C° 1.2 mm 1 mps 748 mmHg 62%
12:00 +27°C° 1.2 mm 1 mps 748 mmHg 61%
13:00 +28°C° 1.2 mm 1 mps 748 mmHg 59%
14:00 +28°C° 0.8 mm 1 mps 747 mmHg 59%
15:00 +27°C° 0.8 mm 1 mps 747 mmHg 60%
16:00 +27°C° 0.8 mm 1 mps 747 mmHg 61%
17:00 +26°C° 0.1 mm 1 mps 747 mmHg 66%
18:00 +25°C° 0.1 mm 1 mps 747 mmHg 71%
19:00 +24°C° 0.1 mm 1 mps 747 mmHg 76%
20:00 +24°C° 0.1 mm 1 mps 747 mmHg 78%
21:00 +23°C° 0.1 mm 1 mps 747 mmHg 80%
22:00 +22°C° 0.1 mm 1 mps 747 mmHg 82%
23:00 +21°C° 0.1 mm 1 mps 747 mmHg 83%

20 July, Monday

Time Temperature Precipitation Wind Pressure Humidity
00:00 +21°C° 0.1 mm 1 mps 747 mmHg 85%
01:00 +21°C° 0.1 mm 1 mps 747 mmHg 86%
02:00 +19°C° 0.1 mm 2 mps 747 mmHg 88%
03:00 +19°C° 0.1 mm 2 mps 747 mmHg 89%
04:00 +19°C° 0.1 mm 2 mps 746 mmHg 91%
05:00 +20°C° 0.1 mm 2 mps 747 mmHg 88%
06:00 +21°C° 0.1 mm 2 mps 747 mmHg 85%
07:00 +22°C° 0.1 mm 3 mps 747 mmHg 82%
08:00 +24°C° 0.7 mm 3 mps 746 mmHg 77%
09:00 +25°C° 0.7 mm 4 mps 746 mmHg 72%
10:00 +26°C° 0.7 mm 5 mps 746 mmHg 67%
11:00 +27°C° 0.3 mm 5 mps 746 mmHg 63%
12:00 +27°C° 0.3 mm 6 mps 746 mmHg 60%
13:00 +28°C° 0.3 mm 6 mps 746 mmHg 56%
14:00 +27°C° 0.1 mm 6 mps 746 mmHg 58%
15:00 +27°C° 0.1 mm 6 mps 746 mmHg 59%
16:00 +27°C° 0.1 mm 6 mps 746 mmHg 60%
17:00 +25°C° 0.8 mm 5 mps 746 mmHg 69%
18:00 +22°C° 0.8 mm 5 mps 747 mmHg 78%
19:00 +20°C° 0.8 mm 5 mps 747 mmHg 87%
20:00 +19°C° 0.3 mm 5 mps 747 mmHg 88%
21:00 +17°C° 0.3 mm 5 mps 748 mmHg 90%
22:00 +16°C° 0.3 mm 6 mps 748 mmHg 92%
23:00 +15°C° 0 mm 6 mps 749 mmHg 91%
Show more